| time (UTC) | temp C | wind direction | speed KPH | gust KPH | rain 1hr cm | rain 24hr cm | rain mn cm | humidity % | barometer mb |
| 20260507051017 | 17 | 250 | 4.8 | 11.3 | 0.41 | 0.74 | 0.41 | 87 | 1009.5 |
| 20260507050017 | 18 | 312 | 3.2 | 11.3 | 0.00 | 0.36 | 0.00 | 84 | 1008.9 |
| 20260507045017 | 18 | 330 | 3.2 | 6.4 | 0.00 | 0.36 | 0.00 | 85 | 1008.8 |
| 20260507044017 | 18 | 328 | 3.2 | 9.7 | 0.00 | 0.36 | 0.00 | 85 | 1008.8 |
| 20260507043018 | 18 | 352 | 3.2 | 9.7 | 0.00 | 0.36 | 0.00 | 86 | 1008.4 |
| 20260507042018 | 18 | 319 | 3.2 | 6.4 | 0.00 | 0.36 | 0.00 | 90 | 1008.5 |
| 20260507041018 | 18 | 244 | 1.6 | 6.4 | 0.00 | 0.36 | 0.00 | 91 | 1008.6 |
| 20260507040016 | 18 | 311 | 1.6 | 4.8 | 0.00 | 0.36 | 0.00 | 92 | 1008.6 |
| 20260507035016 | 18 | 222 | 3.2 | 6.4 | 0.00 | 0.36 | 0.36 | 91 | 1008.7 |
| 20260507034015 | 18 | 208 | 0.0 | 3.2 | 0.00 | 0.36 | 0.36 | 90 | 1008.3 |
| 20260507033015 | 18 | 0.0 | 0.0 | 0.00 | 0.36 | 0.36 | 90 | 1008.1 | |
| 20260507032016 | 18 | 0.0 | 0.0 | 0.00 | 0.36 | 0.36 | 91 | 1008.2 | |
| 20260507031016 | 18 | 0.0 | 0.0 | 0.00 | 0.36 | 0.36 | 91 | 1008.3 | |
| 20260507030016 | 17 | 188 | 0.0 | 4.8 | 0.00 | 0.36 | 0.36 | 92 | 1008.1 |
| 20260507025016 | 17 | 0.0 | 0.0 | 0.00 | 0.36 | 0.36 | 93 | 1008.1 | |
| 20260507024016 | 17 | 0.0 | 0.0 | 0.00 | 0.36 | 0.36 | 93 | 1008.0 | |
| 20260507023017 | 17 | 131 | 0.0 | 1.6 | 0.00 | 0.36 | 0.36 | 93 | 1008.1 |
| 20260507022017 | 17 | 119 | 0.0 | 1.6 | 0.00 | 0.36 | 0.36 | 93 | 1008.1 |
| 20260507021017 | 17 | 0.0 | 0.0 | 0.00 | 0.36 | 0.36 | 92 | 1007.9 | |
| 20260507020017 | 18 | 102 | 0.0 | 3.2 | 0.00 | 0.36 | 0.36 | 91 | 1008.2 |
| 20260507015017 | 18 | 120 | 0.0 | 1.6 | 0.00 | 0.36 | 0.36 | 91 | 1008.7 |
| 20260507014018 | 18 | 132 | 0.0 | 3.2 | 0.00 | 0.36 | 0.36 | 90 | 1008.9 |
| 20260507013038 | 18 | 140 | 0.0 | 1.6 | 0.00 | 0.36 | 0.36 | 90 | 1009.0 |
| 20260507012018 | 17 | 0.0 | 0.0 | 0.00 | 0.36 | 0.36 | 91 | 1008.7 | |
| 20260507010015 | 18 | 105 | 0.0 | 0.0 | 0.00 | 0.36 | 0.36 | 90 | 1008.4 |
| 20260507005035 | 18 | 73 | 0.0 | 1.6 | 0.00 | 0.36 | 0.36 | 89 | 1008.4 |
| 20260507004036 | 18 | 100 | 0.0 | 1.6 | 0.00 | 0.36 | 0.36 | 88 | 1008.3 |
| 20260507003016 | 18 | 111 | 0.0 | 1.6 | 0.00 | 0.36 | 0.36 | 87 | 1008.4 |
| 20260507002016 | 18 | 148 | 0.0 | 3.2 | 0.00 | 0.36 | 0.36 | 86 | 1008.5 |
| 20260507001016 | 19 | 0.0 | 0.0 | 0.00 | 0.36 | 0.36 | 85 | 1008.4 | |
| 20260507000016 | 19 | 179 | 1.6 | 3.2 | 0.00 | 0.36 | 0.36 | 84 | 1008.2 |
| 20260506235018 | 20 | 171 | 1.6 | 4.8 | 0.00 | 0.36 | 0.36 | 83 | 1008.1 |
| 20260506234017 | 20 | 154 | 1.6 | 6.4 | 0.00 | 0.36 | 0.36 | 82 | 1007.8 |
| 20260506233017 | 20 | 157 | 3.2 | 9.7 | 0.00 | 0.36 | 0.36 | 81 | 1007.9 |
| 20260506232017 | 20 | 184 | 4.8 | 9.7 | 0.00 | 0.36 | 0.36 | 81 | 1008.0 |
| 20260506231017 | 20 | 170 | 3.2 | 8.0 | 0.00 | 0.36 | 0.36 | 81 | 1007.9 |
| 20260506230017 | 20 | 186 | 4.8 | 11.3 | 0.00 | 0.36 | 0.36 | 80 | 1007.8 |
| 20260506225018 | 20 | 198 | 4.8 | 11.3 | 0.00 | 0.36 | 0.36 | 79 | 1008.0 |
| 20260506224018 | 20 | 190 | 4.8 | 9.7 | 0.00 | 0.36 | 0.36 | 79 | 1007.9 |
| 20260506223015 | 20 | 198 | 8.0 | 16.1 | 0.00 | 0.36 | 0.36 | 78 | 1008.0 |
| 20260506222016 | 21 | 193 | 8.0 | 17.7 | 0.00 | 0.36 | 0.36 | 78 | 1008.0 |
| 20260506221016 | 21 | 186 | 8.0 | 12.9 | 0.00 | 0.36 | 0.36 | 77 | 1007.9 |
| 20260506220016 | 21 | 186 | 9.7 | 16.1 | 0.00 | 0.36 | 0.36 | 77 | 1008.0 |
| 20260506215016 | 21 | 195 | 8.0 | 16.1 | 0.00 | 0.36 | 0.36 | 76 | 1008.0 |
| 20260506214016 | 21 | 181 | 6.4 | 14.5 | 0.00 | 0.36 | 0.36 | 75 | 1007.9 |
| 20260506213016 | 21 | 196 | 9.7 | 17.7 | 0.00 | 0.36 | 0.36 | 76 | 1007.7 |
| 20260506212057 | 21 | 185 | 8.0 | 19.3 | 0.00 | 0.36 | 0.36 | 77 | 1007.6 |
| 20260506211017 | 21 | 191 | 8.0 | 19.3 | 0.00 | 0.36 | 0.36 | 76 | 1007.6 |
| 20260506210017 | 21 | 199 | 11.3 | 27.4 | 0.00 | 0.36 | 0.36 | 77 | 1007.4 |
| 20260506205037 | 21 | 185 | 8.0 | 17.7 | 0.00 | 0.36 | 0.36 | 76 | 1007.6 |
| 20260506204017 | 21 | 189 | 6.4 | 14.5 | 0.00 | 0.36 | 0.36 | 76 | 1007.5 |
| 20260506203016 | 21 | 200 | 9.7 | 17.7 | 0.00 | 0.36 | 0.36 | 76 | 1007.4 |
| 20260506202016 | 21 | 187 | 9.7 | 22.5 | 0.00 | 0.36 | 0.36 | 76 | 1007.3 |
| 20260506201016 | 21 | 191 | 11.3 | 19.3 | 0.00 | 0.36 | 0.36 | 76 | 1007.2 |
| 20260506200016 | 21 | 195 | 9.7 | 17.7 | 0.00 | 0.36 | 0.36 | 76 | 1007.4 |
| 20260506195017 | 20 | 189 | 12.9 | 22.5 | 0.00 | 0.36 | 0.36 | 77 | 1007.4 |
| 20260506194017 | 20 | 190 | 8.0 | 19.3 | 0.00 | 0.36 | 0.36 | 79 | 1007.6 |
| 20260506193036 | 20 | 192 | 12.9 | 24.1 | 0.00 | 0.36 | 0.36 | 78 | 1007.6 |
| 20260506192036 | 20 | 191 | 9.7 | 20.9 | 0.00 | 0.36 | 0.36 | 78 | 1007.7 |
| 20260506191016 | 20 | 191 | 6.4 | 16.1 | 0.00 | 0.36 | 0.36 | 78 | 1007.7 |
| 20260506190016 | 20 | 177 | 11.3 | 22.5 | 0.00 | 0.36 | 0.36 | 77 | 1007.9 |
| 20260506185016 | 20 | 196 | 9.7 | 17.7 | 0.00 | 0.36 | 0.36 | 77 | 1008.0 |
| 20260506184016 | 20 | 189 | 9.7 | 22.5 | 0.00 | 0.36 | 0.36 | 77 | 1008.2 |
| 20260506183016 | 20 | 198 | 11.3 | 19.3 | 0.00 | 0.36 | 0.36 | 77 | 1008.3 |
| 20260506182017 | 20 | 184 | 11.3 | 20.9 | 0.00 | 0.36 | 0.36 | 78 | 1008.3 |
| 20260506181016 | 20 | 184 | 9.7 | 20.9 | 0.00 | 0.36 | 0.36 | 79 | 1008.4 |
| 20260506180017 | 19 | 196 | 11.3 | 19.3 | 0.00 | 0.36 | 0.36 | 80 | 1008.6 |
| 20260506175017 | 19 | 185 | 11.3 | 20.9 | 0.00 | 0.36 | 0.36 | 80 | 1008.7 |
| 20260506174037 | 19 | 190 | 8.0 | 17.7 | 0.00 | 0.36 | 0.36 | 80 | 1008.9 |
| 20260506173038 | 19 | 194 | 11.3 | 24.1 | 0.00 | 0.36 | 0.36 | 79 | 1008.7 |
| 20260506172018 | 18 | 197 | 11.3 | 24.1 | 0.00 | 0.36 | 0.36 | 81 | 1008.6 |
| 20260506171018 | 18 | 193 | 11.3 | 20.9 | 0.00 | 0.36 | 0.36 | 83 | 1008.7 |
| 20260506170018 | 18 | 175 | 9.7 | 20.9 | 0.03 | 0.36 | 0.36 | 84 | 1008.8 |
| 20260506165015 | 18 | 177 | 9.7 | 25.7 | 0.03 | 0.36 | 0.36 | 86 | 1008.7 |
| 20260506164015 | 17 | 175 | 9.7 | 17.7 | 0.08 | 0.36 | 0.36 | 88 | 1008.8 |
| 20260506163016 | 17 | 176 | 9.7 | 17.7 | 0.13 | 0.36 | 0.36 | 88 | 1009.2 |
| 20260506162016 | 17 | 170 | 8.0 | 14.5 | 0.18 | 0.33 | 0.33 | 89 | 1009.2 |
| 20260506161016 | 17 | 163 | 6.4 | 14.5 | 0.20 | 0.33 | 0.33 | 90 | 1009.2 |
| 20260506160016 | 17 | 145 | 8.0 | 16.1 | 0.23 | 0.33 | 0.33 | 90 | 1009.2 |
| 20260506155016 | 17 | 153 | 6.4 | 12.9 | 0.25 | 0.30 | 0.30 | 90 | 1009.6 |
| 20260506154036 | 17 | 165 | 6.4 | 14.5 | 0.23 | 0.28 | 0.28 | 89 | 1010.0 |
| 20260506153037 | 17 | 166 | 8.0 | 12.9 | 0.20 | 0.23 | 0.23 | 87 | 1010.2 |
| 20260506152117 | 18 | 183 | 8.0 | 19.3 | 0.15 | 0.15 | 0.15 | 85 | 1010.2 |
| 20260506151017 | 18 | 173 | 6.4 | 12.9 | 0.13 | 0.13 | 0.13 | 84 | 1010.1 |
| 20260506150017 | 18 | 173 | 8.0 | 20.9 | 0.08 | 0.08 | 0.08 | 81 | 1010.2 |
| 20260506145017 | 18 | 173 | 8.0 | 19.3 | 0.05 | 0.05 | 0.05 | 80 | 1010.2 |
| 20260506144017 | 18 | 187 | 8.0 | 17.7 | 0.05 | 0.05 | 0.05 | 77 | 1010.3 |
| 20260506143038 | 20 | 182 | 8.0 | 16.1 | 0.03 | 0.03 | 0.03 | 73 | 1010.2 |
| 20260506142018 | 20 | 184 | 9.7 | 14.5 | 0.00 | 0.00 | 0.00 | 68 | 1010.2 |
| 20260506141018 | 20 | 192 | 8.0 | 12.9 | 0.00 | 0.00 | 0.00 | 67 | 1010.3 |
| 20260506140058 | 20 | 190 | 9.7 | 20.9 | 0.00 | 0.00 | 0.00 | 67 | 1010.2 |
| 20260506135015 | 20 | 182 | 9.7 | 20.9 | 0.00 | 0.00 | 0.00 | 67 | 1010.2 |
| 20260506134035 | 20 | 186 | 6.4 | 17.7 | 0.00 | 0.00 | 0.00 | 66 | 1010.1 |
| 20260506133016 | 20 | 178 | 8.0 | 17.7 | 0.00 | 0.00 | 0.00 | 66 | 1010.1 |
| 20260506132016 | 20 | 177 | 8.0 | 17.7 | 0.00 | 0.00 | 0.00 | 66 | 1010.0 |
| 20260506131016 | 20 | 182 | 9.7 | 19.3 | 0.00 | 0.00 | 0.00 | 67 | 1009.9 |
| 20260506130016 | 20 | 178 | 8.0 | 17.7 | 0.00 | 0.00 | 0.00 | 67 | 1010.0 |
| 20260506125016 | 20 | 184 | 11.3 | 25.7 | 0.00 | 0.00 | 0.00 | 67 | 1010.0 |
| 20260506124018 | 20 | 178 | 9.7 | 19.3 | 0.00 | 0.00 | 0.00 | 66 | 1010.1 |
| 20260506123017 | 20 | 181 | 9.7 | 20.9 | 0.00 | 0.00 | 0.00 | 66 | 1010.2 |
| 20260506122017 | 20 | 175 | 11.3 | 29.0 | 0.00 | 0.00 | 0.00 | 66 | 1010.2 |
| 20260506121017 | 20 | 174 | 11.3 | 19.3 | 0.00 | 0.00 | 0.00 | 66 | 1010.2 |
| 20260506120017 | 20 | 168 | 9.7 | 17.7 | 0.00 | 0.00 | 0.00 | 67 | 1010.1 |
| 20260506115037 | 20 | 181 | 9.7 | 20.9 | 0.00 | 0.00 | 0.00 | 67 | 1010.1 |
| 20260506114018 | 19 | 170 | 9.7 | 19.3 | 0.00 | 0.00 | 0.00 | 69 | 1010.0 |
| 20260506113038 | 18 | 159 | 9.7 | 17.7 | 0.00 | 0.00 | 0.00 | 72 | 1010.0 |
| 20260506112018 | 18 | 164 | 8.0 | 17.7 | 0.00 | 0.00 | 0.00 | 73 | 1010.0 |
| 20260506111015 | 18 | 167 | 9.7 | 17.7 | 0.00 | 0.00 | 0.00 | 73 | 1009.7 |
| 20260506110015 | 18 | 166 | 9.7 | 17.7 | 0.00 | 0.00 | 0.00 | 73 | 1009.8 |
| 20260506105015 | 18 | 165 | 9.7 | 19.3 | 0.00 | 0.00 | 0.00 | 74 | 1009.7 |
| 20260506104016 | 18 | 178 | 9.7 | 19.3 | 0.00 | 0.00 | 0.00 | 75 | 1009.7 |
| 20260506103016 | 18 | 174 | 8.0 | 17.7 | 0.00 | 0.00 | 0.00 | 76 | 1009.6 |
| 20260506102016 | 18 | 177 | 9.7 | 19.3 | 0.00 | 0.00 | 0.00 | 76 | 1009.6 |
| 20260506101016 | 18 | 172 | 9.7 | 19.3 | 0.00 | 0.00 | 0.00 | 76 | 1009.8 |
| 20260506100016 | 18 | 168 | 9.7 | 19.3 | 0.00 | 0.00 | 0.00 | 77 | 1009.8 |
| 20260506095016 | 18 | 173 | 9.7 | 20.9 | 0.00 | 0.00 | 0.00 | 77 | 1009.7 |
| 20260506094016 | 18 | 172 | 9.7 | 22.5 | 0.00 | 0.00 | 0.00 | 77 | 1009.7 |
| 20260506093017 | 18 | 172 | 8.0 | 14.5 | 0.00 | 0.00 | 0.00 | 77 | 1009.8 |
| 20260506092017 | 18 | 171 | 8.0 | 17.7 | 0.00 | 0.00 | 0.00 | 76 | 1009.8 |
| 20260506091017 | 18 | 175 | 8.0 | 14.5 | 0.00 | 0.00 | 0.00 | 76 | 1009.8 |
| 20260506090017 | 18 | 167 | 8.0 | 16.1 | 0.00 | 0.00 | 0.00 | 76 | 1009.8 |
| 20260506085018 | 18 | 168 | 9.7 | 19.3 | 0.00 | 0.00 | 0.00 | 76 | 1009.7 |
| 20260506084018 | 18 | 165 | 9.7 | 20.9 | 0.00 | 0.00 | 0.00 | 76 | 1009.7 |
| 20260506083018 | 18 | 162 | 8.0 | 16.1 | 0.00 | 0.00 | 0.00 | 76 | 1009.6 |
| 20260506082019 | 18 | 172 | 8.0 | 17.7 | 0.00 | 0.00 | 0.00 | 76 | 1009.8 |
| 20260506081018 | 18 | 166 | 8.0 | 16.1 | 0.00 | 0.00 | 0.00 | 75 | 1009.9 |
| 20260506073016 | 19 | 171 | 8.0 | 17.7 | 0.00 | 0.00 | 0.00 | 75 | 1010.1 |
| 20260506072016 | 19 | 165 | 8.0 | 12.9 | 0.00 | 0.00 | 0.00 | 75 | 1010.1 |
| 20260506071016 | 19 | 175 | 8.0 | 16.1 | 0.00 | 0.00 | 0.00 | 74 | 1010.1 |
| 20260506062017 | 20 | 160 | 9.7 | 17.7 | 0.00 | 0.00 | 0.00 | 72 | 1010.2 |
| 20260506061017 | 20 | 166 | 9.7 | 20.9 | 0.00 | 0.00 | 0.00 | 71 | 1010.3 |